| time (UTC) | temp F | wind direction | speed MPH | gust MPH | rain 1hr in | rain 24hr in | rain mn in | humidity % | barometer mb |
| 20260510192000 | 65 | 292 | 7.0 | 11.0 | 0.00 | 0.00 | 0.00 | 48 | 1008.2 |
| 20260510191556 | 65 | 270 | 4.0 | 6.0 | 0.00 | 0.00 | 0.00 | 49 | 1008.1 |
| 20260510191355 | 65 | 315 | 6.0 | 6.0 | 0.00 | 0.00 | 0.00 | 49 | 1008.1 |
| 20260510191241 | 65 | 315 | 3.0 | 5.0 | 0.00 | 0.00 | 0.00 | 49 | 1008.1 |
| 20260510190837 | 66 | 315 | 1.0 | 126.0 | 0.00 | 0.00 | 0.00 | 48 | 1008.1 |
| 20260510190715 | 66 | 270 | 2.0 | 126.0 | 0.00 | 0.00 | 0.00 | 48 | 1008.1 |
| 20260510190637 | 66 | 270 | 2.0 | 126.0 | 0.00 | 0.00 | 0.00 | 48 | 1008.1 |
| 20260510190357 | 66 | 292 | 2.0 | 6.0 | 0.00 | 0.00 | 0.00 | 48 | 1008.0 |
| 20260510190153 | 66 | 292 | 4.0 | 6.0 | 0.00 | 0.00 | 0.00 | 47 | 1008.0 |
| 20260510185748 | 66 | 292 | 2.0 | 2.0 | 0.00 | 0.00 | 0.00 | 48 | 1007.8 |
| 20260510185704 | 66 | 270 | 2.0 | 4.0 | 0.00 | 0.00 | 0.00 | 47 | 1007.9 |
| 20260510185502 | 67 | 292 | 4.0 | 4.0 | 0.00 | 0.00 | 0.00 | 47 | 1007.8 |
| 20260510185301 | 67 | 270 | 3.0 | 129.0 | 0.00 | 0.00 | 0.00 | 47 | 1007.8 |
| 20260510185139 | 67 | 270 | 6.0 | 129.0 | 0.00 | 0.00 | 0.00 | 45 | 1007.6 |
| 20260510185058 | 67 | 270 | 6.0 | 129.0 | 0.00 | 0.00 | 0.00 | 45 | 1007.6 |
| 20260510184957 | 67 | 270 | 129.0 | 129.0 | 0.00 | 0.00 | 0.00 | 47 | 1007.8 |
| 20260510184803 | 67 | 281 | 4.0 | 4.0 | 0.00 | 0.00 | 0.00 | 49 | 1007.6 |
| 20260510184601 | 67 | 270 | 4.0 | 4.0 | 0.00 | 0.00 | 0.00 | 47 | 1007.4 |
| 20260510184359 | 67 | 270 | 4.0 | 4.0 | 0.00 | 0.00 | 0.00 | 46 | 1007.4 |
| 20260510184204 | 67 | 270 | 3.0 | 3.0 | 0.00 | 0.00 | 0.00 | 46 | 1007.3 |
| 20260510183752 | 68 | 292 | 3.0 | 3.0 | 0.00 | 0.00 | 0.00 | 48 | 1007.5 |
| 20260510183550 | 68 | 270 | 2.0 | 124.0 | 0.00 | 0.00 | 0.00 | 46 | 1007.5 |
| 20260510183348 | 68 | 270 | 1.0 | 124.0 | 0.00 | 0.00 | 0.00 | 46 | 1007.5 |
| 20260510183246 | 68 | 270 | 124.0 | 124.0 | 0.00 | 0.00 | 0.00 | 46 | 1007.4 |
| 20260510183213 | 68 | 270 | 1.0 | 1.0 | 0.00 | 0.00 | 0.00 | 45 | 1007.4 |
| 20260510183011 | 68 | 270 | 1.0 | 3.0 | 0.00 | 0.00 | 0.00 | 46 | 1007.4 |
| 20260510182809 | 69 | 270 | 2.0 | 123.0 | 0.00 | 0.00 | 0.00 | 45 | 1007.2 |
| 20260510182606 | 69 | 315 | 0.0 | 123.0 | 0.00 | 0.00 | 0.00 | 44 | 1007.3 |
| 20260510182404 | 69 | 315 | 123.0 | 123.0 | 0.00 | 0.00 | 0.00 | 45 | 1007.2 |
| 20260510182308 | 69 | 315 | 0.0 | 1.0 | 0.00 | 0.00 | 0.00 | 44 | 1007.1 |
| 20260510182107 | 69 | 315 | 1.0 | 2.0 | 0.00 | 0.00 | 0.00 | 44 | 1007.0 |
| 20260510181905 | 69 | 315 | 1.0 | 125.0 | 0.00 | 0.00 | 0.00 | 44 | 1006.9 |
| 20260510181600 | 69 | 315 | 125.0 | 125.0 | 0.00 | 0.00 | 0.00 | 43 | 1006.8 |
| 20260510181400 | 69 | 315 | 1.0 | 2.0 | 0.00 | 0.00 | 0.00 | 44 | 1006.8 |
| 20260510181158 | 69 | 315 | 2.0 | 126.0 | 0.00 | 0.00 | 0.00 | 44 | 1006.8 |
| 20260510180956 | 69 | 315 | 2.0 | 126.0 | 0.00 | 0.00 | 0.00 | 44 | 1006.8 |
| 20260510180854 | 69 | 315 | 126.0 | 126.0 | 0.00 | 0.00 | 0.00 | 44 | 1006.8 |
| 20260510180504 | 69 | 315 | 2.0 | 123.0 | 0.00 | 0.00 | 0.00 | 44 | 1006.8 |
| 20260510180449 | 70 | 225 | 1.0 | 2.0 | 0.00 | 0.00 | 0.01 | 44 | 1006.9 |
| 20260510180129 | 69 | 225 | 123.0 | 123.0 | 0.00 | 0.00 | 0.00 | 44 | 1006.7 |
| 20260510180052 | 70 | 225 | 1.0 | 2.0 | 0.00 | 0.00 | 0.01 | 44 | 1006.9 |
| 20260510175848 | 70 | 247 | 1.0 | 2.0 | 0.00 | 0.00 | 0.01 | 44 | 1006.8 |
| 20260510175246 | 70 | 225 | 5.0 | 5.0 | 0.00 | 0.00 | 0.01 | 44 | 1007.0 |
| 20260510175038 | 70 | 225 | 3.0 | 4.0 | 0.00 | 0.00 | 0.01 | 43 | 1007.0 |
| 20260510174837 | 70 | 225 | 3.0 | 4.0 | 0.00 | 0.00 | 0.01 | 43 | 1006.9 |
| 20260510174635 | 70 | 225 | 3.0 | 4.0 | 0.00 | 0.00 | 0.01 | 42 | 1006.9 |
| 20260510174233 | 70 | 225 | 3.0 | 4.0 | 0.00 | 0.00 | 0.01 | 42 | 1007.0 |
| 20260510173837 | 71 | 0 | 4.0 | 4.0 | 0.00 | 0.00 | 0.00 | 38 | 1007.0 |
| 20260510173826 | 71 | 225 | 2.0 | 3.0 | 0.00 | 0.00 | 0.01 | 39 | 1006.9 |
| 20260510173628 | 71 | 225 | 3.0 | 5.0 | 0.00 | 0.00 | 0.01 | 38 | 1006.9 |
| 20260510173423 | 71 | 225 | 3.0 | 5.0 | 0.00 | 0.00 | 0.01 | 37 | 1006.9 |
| 20260510173052 | 71 | 0 | 2.0 | 5.0 | 0.00 | 0.00 | 0.00 | 37 | 1007.0 |
| 20260510173017 | 71 | 0 | 2.0 | 5.0 | 0.00 | 0.00 | 0.00 | 37 | 1007.0 |
| 20260510172814 | 71 | 0 | 4.0 | 4.0 | 0.00 | 0.00 | 0.00 | 38 | 1007.0 |
| 20260510172612 | 71 | 247 | 1.0 | 1.0 | 0.00 | 0.00 | 0.00 | 38 | 1006.9 |
| 20260510172005 | 71 | 45 | 0.0 | 2.0 | 0.00 | 0.00 | 0.00 | 37 | 1006.8 |
| 20260510171802 | 71 | 45 | 1.0 | 2.0 | 0.00 | 0.00 | 0.00 | 37 | 1006.8 |
| 20260510171600 | 71 | 45 | 1.0 | 4.0 | 0.00 | 0.00 | 0.00 | 37 | 1006.7 |
| 20260510171413 | 71 | 45 | 2.0 | 2.0 | 0.00 | 0.00 | 0.00 | 36 | 1006.7 |
| 20260510171359 | 71 | 0 | 3.0 | 4.0 | 0.00 | 0.00 | 0.00 | 36 | 1006.7 |
| 20260510171157 | 71 | 45 | 2.0 | 2.0 | 0.00 | 0.00 | 0.00 | 36 | 1006.7 |
| 20260510170810 | 71 | 45 | 2.0 | 6.0 | 0.00 | 0.00 | 0.00 | 35 | 1006.5 |
| 20260510170753 | 71 | 45 | 2.0 | 4.0 | 0.00 | 0.00 | 0.00 | 35 | 1006.5 |
| 20260510170623 | 71 | 45 | 2.0 | 6.0 | 0.00 | 0.00 | 0.00 | 35 | 1006.5 |
| 20260510170550 | 71 | 45 | 2.0 | 6.0 | 0.00 | 0.00 | 0.00 | 35 | 1006.5 |
| 20260510170348 | 71 | 45 | 4.0 | 6.0 | 0.00 | 0.00 | 0.00 | 35 | 1006.4 |
| 20260510170146 | 71 | 0 | 4.0 | 6.0 | 0.00 | 0.00 | 0.00 | 36 | 1006.4 |
| 20260510165740 | 71 | 0 | 6.0 | 7.0 | 0.00 | 0.00 | 0.00 | 36 | 1006.4 |
| 20260510165538 | 71 | 22 | 7.0 | 7.0 | 0.00 | 0.00 | 0.00 | 37 | 1006.4 |
| 20260510165134 | 71 | 22 | 6.0 | 6.0 | 0.00 | 0.00 | 0.00 | 38 | 1006.3 |
| 20260510164931 | 70 | 247 | 3.0 | 4.0 | 0.00 | 0.00 | 0.00 | 38 | 1006.4 |
| 20260510164123 | 70 | 270 | 3.0 | 5.0 | 0.00 | 0.00 | 0.00 | 39 | 1006.3 |
| 20260510163921 | 70 | 292 | 4.0 | 4.0 | 0.00 | 0.00 | 0.00 | 39 | 1006.2 |
| 20260510163718 | 70 | 247 | 2.0 | 3.0 | 0.00 | 0.00 | 0.00 | 38 | 1006.2 |
| 20260510163316 | 69 | 303 | 3.0 | 3.0 | 0.00 | 0.00 | 0.00 | 38 | 1006.2 |
| 20260510162921 | 69 | 303 | 2.0 | 12.0 | 0.00 | 0.00 | 0.00 | 37 | 1006.2 |
| 20260510162706 | 70 | 0 | 4.0 | 12.0 | 0.00 | 0.00 | 0.00 | 38 | 1006.1 |
| 20260510162554 | 70 | 270 | 12.0 | 13.0 | 0.00 | 0.00 | 0.00 | 37 | 1006.2 |
| 20260510162402 | 70 | 303 | 3.0 | 13.0 | 0.00 | 0.00 | 0.00 | 37 | 1006.2 |
| 20260510162203 | 70 | 315 | 8.0 | 11.0 | 0.00 | 0.00 | 0.00 | 37 | 1006.2 |
| 20260510161957 | 70 | 292 | 8.0 | 10.0 | 0.00 | 0.00 | 0.00 | 37 | 1006.2 |
| 20260510161756 | 70 | 270 | 4.0 | 13.0 | 0.00 | 0.00 | 0.00 | 37 | 1006.2 |
| 20260510161553 | 70 | 315 | 7.0 | 13.0 | 0.00 | 0.00 | 0.00 | 37 | 1006.1 |
| 20260510161351 | 70 | 326 | 12.0 | 13.0 | 0.00 | 0.00 | 0.00 | 36 | 1006.0 |
| 20260510161149 | 70 | 303 | 10.0 | 13.0 | 0.00 | 0.00 | 0.00 | 36 | 1005.9 |
| 20260510160947 | 71 | 326 | 13.0 | 16.0 | 0.00 | 0.00 | 0.00 | 36 | 1005.7 |
| 20260510160849 | 71 | 292 | 13.0 | 16.0 | 0.00 | 0.00 | 0.00 | 36 | 1005.8 |
| 20260510160744 | 71 | 292 | 13.0 | 16.0 | 0.00 | 0.00 | 0.00 | 36 | 1005.8 |
| 20260510160542 | 71 | 315 | 10.0 | 12.0 | 0.00 | 0.00 | 0.00 | 36 | 1005.7 |
| 20260510160341 | 71 | 0 | 11.0 | 11.0 | 0.00 | 0.00 | 0.00 | 36 | 1005.6 |
| 20260510155937 | 72 | 292 | 7.0 | 13.0 | 0.00 | 0.00 | 0.00 | 35 | 1005.5 |
| 20260510155810 | 72 | 292 | 8.0 | 13.0 | 0.00 | 0.00 | 0.00 | 35 | 1005.4 |
| 20260510155732 | 72 | 292 | 8.0 | 13.0 | 0.00 | 0.00 | 0.00 | 35 | 1005.4 |
| 20260510155534 | 72 | 225 | 8.0 | 13.0 | 0.00 | 0.00 | 0.00 | 35 | 1005.4 |
| 20260510155127 | 72 | 292 | 10.0 | 15.0 | 0.00 | 0.00 | 0.00 | 35 | 1005.4 |
| 20260510154923 | 72 | 303 | 14.0 | 15.0 | 0.00 | 0.00 | 0.00 | 35 | 1005.3 |
| 20260510154151 | 72 | 337 | 6.0 | 9.0 | 0.00 | 0.00 | 0.00 | 34 | 1005.1 |
| 20260510154118 | 72 | 337 | 6.0 | 9.0 | 0.00 | 0.00 | 0.00 | 34 | 1005.1 |
| 20260510153508 | 73 | 292 | 7.0 | 18.0 | 0.00 | 0.00 | 0.00 | 32 | 1005.6 |
| 20260510153326 | 74 | 337 | 16.0 | 18.0 | 0.00 | 0.00 | 0.00 | 32 | 1005.6 |
| 20260510152720 | 74 | 281 | 14.0 | 14.0 | 0.00 | 0.00 | 0.00 | 31 | 1005.5 |
| 20260510152314 | 75 | 337 | 9.0 | 16.0 | 0.00 | 0.00 | 0.00 | 31 | 1005.6 |
| 20260510152113 | 75 | 225 | 13.0 | 13.0 | 0.00 | 0.00 | 0.00 | 31 | 1005.6 |
| 20260510151707 | 75 | 292 | 10.0 | 12.0 | 0.00 | 0.00 | 0.00 | 31 | 1005.7 |
| 20260510151506 | 75 | 258 | 9.0 | 14.0 | 0.00 | 0.00 | 0.00 | 30 | 1005.8 |
| 20260510151303 | 75 | 292 | 11.0 | 16.0 | 0.00 | 0.00 | 0.00 | 29 | 1005.9 |
| 20260510151100 | 75 | 292 | 13.0 | 16.0 | 0.00 | 0.00 | 0.00 | 29 | 1005.7 |
| 20260510150922 | 76 | 292 | 13.0 | 15.0 | 0.00 | 0.00 | 0.00 | 30 | 1005.9 |
| 20260510150858 | 75 | 292 | 12.0 | 16.0 | 0.00 | 0.00 | 0.00 | 29 | 1005.6 |
| 20260510150656 | 76 | 292 | 16.0 | 18.0 | 0.00 | 0.00 | 0.00 | 28 | 1005.8 |
| 20260510150049 | 76 | 292 | 13.0 | 14.0 | 0.00 | 0.00 | 0.00 | 28 | 1005.8 |
| 20260510145644 | 76 | 315 | 10.0 | 14.0 | 0.00 | 0.00 | 0.00 | 29 | 1005.9 |
| 20260510145442 | 76 | 292 | 13.0 | 15.0 | 0.00 | 0.00 | 0.00 | 30 | 1005.9 |
| 20260510145421 | 77 | 292 | 11.0 | 12.0 | 0.00 | 0.00 | 0.00 | 31 | 1005.9 |
| 20260510145038 | 77 | 292 | 15.0 | 17.0 | 0.00 | 0.00 | 0.00 | 30 | 1005.9 |
| 20260510144635 | 77 | 292 | 11.0 | 12.0 | 0.00 | 0.00 | 0.00 | 31 | 1005.9 |
| 20260510144513 | 77 | 11 | 6.0 | 10.0 | 0.00 | 0.00 | 0.00 | 31 | 1005.9 |
| 20260510144431 | 77 | 292 | 10.0 | 11.0 | 0.00 | 0.00 | 0.00 | 30 | 1006.0 |
| 20260510144229 | 77 | 11 | 6.0 | 10.0 | 0.00 | 0.00 | 0.00 | 31 | 1005.9 |
| 20260510143823 | 77 | 45 | 8.0 | 13.0 | 0.00 | 0.00 | 0.00 | 30 | 1005.7 |
| 20260510143419 | 77 | 11 | 7.0 | 8.0 | 0.00 | 0.00 | 0.00 | 32 | 1005.8 |
| 20260510142611 | 76 | 337 | 2.0 | 4.0 | 0.00 | 0.00 | 0.00 | 35 | 1006.0 |
| 20260510142206 | 75 | 326 | 5.0 | 12.0 | 0.00 | 0.00 | 0.00 | 35 | 1006.2 |
| 20260510142004 | 75 | 292 | 8.0 | 12.0 | 0.00 | 0.00 | 0.00 | 36 | 1006.2 |
| 20260510141156 | 74 | 292 | 6.0 | 10.0 | 0.00 | 0.00 | 0.00 | 37 | 1006.3 |
| 20260510140548 | 72 | 292 | 10.0 | 11.0 | 0.00 | 0.00 | 0.00 | 39 | 1006.4 |
| 20260510140345 | 72 | 292 | 4.0 | 7.0 | 0.00 | 0.00 | 0.00 | 40 | 1006.5 |
| 20260510140143 | 72 | 292 | 5.0 | 7.0 | 0.00 | 0.00 | 0.00 | 40 | 1006.6 |
| 20260510135941 | 71 | 303 | 7.0 | 8.0 | 0.00 | 0.00 | 0.00 | 39 | 1006.7 |
| 20260510135738 | 71 | 292 | 8.0 | 8.0 | 0.00 | 0.00 | 0.00 | 39 | 1006.7 |
| 20260510135536 | 71 | 292 | 8.0 | 8.0 | 0.00 | 0.00 | 0.00 | 39 | 1006.6 |
| 20260510135334 | 70 | 292 | 5.0 | 13.0 | 0.00 | 0.00 | 0.00 | 38 | 1006.7 |
| 20260510133716 | 71 | 292 | 7.0 | 7.0 | 0.00 | 0.00 | 0.00 | 36 | 1006.8 |
| 20260510133311 | 71 | 303 | 6.0 | 10.0 | 0.00 | 0.00 | 0.00 | 37 | 1006.8 |
| 20260510133109 | 70 | 315 | 7.0 | 10.0 | 0.00 | 0.00 | 0.00 | 37 | 1006.8 |
| 20260510132333 | 70 | 337 | 10.0 | 10.0 | 0.00 | 0.00 | 0.00 | 38 | 1006.6 |
| 20260510132300 | 70 | 337 | 10.0 | 10.0 | 0.00 | 0.00 | 0.00 | 38 | 1006.6 |
| 20260510132058 | 70 | 292 | 8.0 | 10.0 | 0.00 | 0.00 | 0.00 | 38 | 1006.7 |
| 20260510131855 | 70 | 292 | 8.0 | 8.0 | 0.00 | 0.00 | 0.00 | 38 | 1006.8 |
| 20260510131118 | 70 | 315 | 5.0 | 7.0 | 0.00 | 0.00 | 0.00 | 36 | 1006.7 |
| 20260510131046 | 70 | 315 | 5.0 | 7.0 | 0.00 | 0.00 | 0.00 | 36 | 1006.7 |
| 20260510130844 | 70 | 292 | 6.0 | 10.0 | 0.00 | 0.00 | 0.00 | 36 | 1006.6 |
| 20260510130346 | 70 | 292 | 8.0 | 13.0 | 0.00 | 0.00 | 0.00 | 36 | 1006.6 |
| 20260510130237 | 70 | 292 | 8.0 | 13.0 | 0.00 | 0.00 | 0.00 | 36 | 1006.6 |
| 20260510130035 | 70 | 292 | 13.0 | 14.0 | 0.00 | 0.00 | 0.00 | 36 | 1006.5 |
| 20260510125833 | 71 | 292 | 10.0 | 14.0 | 0.00 | 0.00 | 0.00 | 36 | 1006.4 |
| 20260510125630 | 71 | 292 | 12.0 | 12.0 | 0.00 | 0.00 | 0.00 | 35 | 1006.5 |
| 20260510125432 | 71 | 292 | 10.0 | 10.0 | 0.00 | 0.00 | 0.00 | 35 | 1006.6 |
| 20260510125226 | 71 | 292 | 9.0 | 10.0 | 0.00 | 0.00 | 0.00 | 36 | 1006.6 |
| 20260510124821 | 71 | 292 | 8.0 | 9.0 | 0.00 | 0.00 | 0.00 | 35 | 1006.6 |
| 20260510124013 | 72 | 337 | 9.0 | 10.0 | 0.00 | 0.00 | 0.00 | 36 | 1006.8 |
| 20260510123810 | 72 | 292 | 6.0 | 9.0 | 0.00 | 0.00 | 0.00 | 36 | 1006.8 |
| 20260510123607 | 72 | 292 | 7.0 | 14.0 | 0.00 | 0.00 | 0.00 | 35 | 1006.8 |
| 20260510123405 | 72 | 292 | 10.0 | 14.0 | 0.00 | 0.00 | 0.00 | 35 | 1006.8 |
| 20260510123203 | 72 | 292 | 9.0 | 12.0 | 0.00 | 0.00 | 0.00 | 35 | 1006.9 |
| 20260510123003 | 72 | 337 | 9.0 | 12.0 | 0.00 | 0.00 | 0.00 | 35 | 1007.0 |
| 20260510122556 | 73 | 315 | 11.0 | 16.0 | 0.00 | 0.00 | 0.00 | 36 | 1007.0 |
| 20260510122354 | 73 | 225 | 13.0 | 13.0 | 0.00 | 0.00 | 0.00 | 36 | 1007.0 |
| 20260510122152 | 73 | 337 | 8.0 | 14.0 | 0.00 | 0.00 | 0.00 | 35 | 1007.0 |
| 20260510121950 | 73 | 292 | 10.0 | 10.0 | 0.00 | 0.00 | 0.00 | 36 | 1007.0 |
| 20260510121748 | 73 | 225 | 8.0 | 13.0 | 0.00 | 0.00 | 0.00 | 36 | 1007.0 |
| 20260510121545 | 73 | 292 | 11.0 | 13.0 | 0.00 | 0.00 | 0.00 | 35 | 1007.0 |
| 20260510121342 | 73 | 337 | 8.0 | 14.0 | 0.00 | 0.00 | 0.00 | 35 | 1007.0 |
| 20260510121140 | 73 | 225 | 11.0 | 14.0 | 0.00 | 0.00 | 0.00 | 35 | 1007.1 |
| 20260510120939 | 73 | 315 | 12.0 | 12.0 | 0.00 | 0.00 | 0.00 | 35 | 1007.2 |
| 20260510120814 | 73 | 337 | 4.0 | 14.0 | 0.00 | 0.00 | 0.00 | 35 | 1007.3 |
| 20260510120736 | 73 | 337 | 4.0 | 14.0 | 0.00 | 0.00 | 0.00 | 35 | 1007.3 |
| 20260510120722 | 73 | 315 | 11.0 | 14.0 | 0.00 | 0.00 | 0.00 | 35 | 1007.3 |
| 20260510120533 | 73 | 315 | 11.0 | 14.0 | 0.00 | 0.00 | 0.00 | 35 | 1007.3 |
| 20260510120331 | 74 | 315 | 10.0 | 13.0 | 0.00 | 0.00 | 0.00 | 36 | 1007.2 |
| 20260510120129 | 74 | 315 | 11.0 | 12.0 | 0.00 | 0.00 | 0.00 | 36 | 1007.3 |
| 20260510115725 | 74 | 315 | 10.0 | 12.0 | 0.00 | 0.00 | 0.00 | 38 | 1007.5 |
| 20260510115522 | 74 | 0 | 12.0 | 13.0 | 0.00 | 0.00 | 0.00 | 36 | 1007.5 |
| 20260510115321 | 74 | 315 | 9.0 | 13.0 | 0.00 | 0.00 | 0.00 | 38 | 1007.6 |
| 20260510115118 | 73 | 0 | 10.0 | 12.0 | 0.00 | 0.00 | 0.00 | 38 | 1007.4 |
| 20260510114916 | 73 | 0 | 8.0 | 12.0 | 0.00 | 0.00 | 0.00 | 38 | 1007.6 |
| 20260510114713 | 73 | 315 | 9.0 | 12.0 | 0.00 | 0.00 | 0.00 | 38 | 1007.4 |
| 20260510114511 | 73 | 270 | 9.0 | 12.0 | 0.00 | 0.00 | 0.00 | 38 | 1007.4 |
| 20260510114310 | 73 | 315 | 9.0 | 14.0 | 0.00 | 0.00 | 0.00 | 37 | 1007.5 |
| 20260510114106 | 73 | 315 | 11.0 | 14.0 | 0.00 | 0.00 | 0.00 | 37 | 1007.5 |
| 20260510113702 | 73 | 348 | 8.0 | 13.0 | 0.00 | 0.00 | 0.00 | 38 | 1007.7 |
| 20260510113257 | 73 | 315 | 9.0 | 12.0 | 0.00 | 0.00 | 0.00 | 38 | 1007.7 |
| 20260510113116 | 73 | 337 | 10.0 | 12.0 | 0.00 | 0.00 | 0.00 | 36 | 1007.7 |
| 20260510113055 | 73 | 315 | 6.0 | 12.0 | 0.00 | 0.00 | 0.00 | 38 | 1007.6 |
| 20260510112853 | 73 | 337 | 11.0 | 12.0 | 0.00 | 0.00 | 0.00 | 38 | 1007.6 |
| 20260510112448 | 73 | 337 | 10.0 | 12.0 | 0.00 | 0.00 | 0.00 | 36 | 1007.7 |
| 20260510112044 | 73 | 315 | 8.0 | 11.0 | 0.00 | 0.00 | 0.00 | 36 | 1007.8 |
| 20260510111842 | 73 | 315 | 7.0 | 9.0 | 0.00 | 0.00 | 0.00 | 36 | 1007.7 |
| 20260510111234 | 74 | 0 | 6.0 | 11.0 | 0.00 | 0.00 | 0.00 | 34 | 1007.8 |
| 20260510111033 | 74 | 326 | 10.0 | 11.0 | 0.00 | 0.00 | 0.00 | 33 | 1007.8 |
| 20260510110830 | 74 | 315 | 9.0 | 9.0 | 0.00 | 0.00 | 0.00 | 33 | 1007.8 |
| 20260510110628 | 74 | 315 | 9.0 | 9.0 | 0.00 | 0.00 | 0.00 | 33 | 1007.9 |
| 20260510110021 | 74 | 0 | 8.0 | 9.0 | 0.00 | 0.00 | 0.00 | 33 | 1008.0 |
| 20260510105821 | 74 | 326 | 6.0 | 7.0 | 0.00 | 0.00 | 0.00 | 34 | 1007.9 |
| 20260510105819 | 74 | 326 | 6.0 | 7.0 | 0.00 | 0.00 | 0.00 | 34 | 1007.9 |
| 20260510105439 | 74 | 281 | 8.0 | 9.0 | 0.00 | 0.00 | 0.00 | 33 | 1007.9 |
| 20260510105212 | 74 | 0 | 7.0 | 10.0 | 0.00 | 0.00 | 0.00 | 33 | 1007.9 |
| 20260510104810 | 74 | 281 | 8.0 | 9.0 | 0.00 | 0.00 | 0.00 | 33 | 1007.9 |
| 20260510104605 | 74 | 315 | 9.0 | 10.0 | 0.00 | 0.00 | 0.00 | 33 | 1007.9 |
| 20260510104402 | 74 | 326 | 5.0 | 10.0 | 0.00 | 0.00 | 0.00 | 32 | 1007.9 |
| 20260510104200 | 75 | 0 | 7.0 | 8.0 | 0.00 | 0.00 | 0.00 | 32 | 1008.0 |
| 20260510103756 | 75 | 0 | 4.0 | 7.0 | 0.00 | 0.00 | 0.00 | 31 | 1008.0 |
| 20260510103554 | 75 | 0 | 6.0 | 7.0 | 0.00 | 0.00 | 0.00 | 32 | 1008.0 |
| 20260510103351 | 75 | 315 | 3.0 | 7.0 | 0.00 | 0.00 | 0.00 | 32 | 1007.9 |
| 20260510103156 | 76 | 315 | 2.0 | 7.0 | 0.00 | 0.00 | 0.00 | 31 | 1007.9 |
| 20260510102745 | 76 | 315 | 6.0 | 8.0 | 0.00 | 0.00 | 0.00 | 31 | 1007.9 |
| 20260510102542 | 76 | 315 | 6.0 | 7.0 | 0.00 | 0.00 | 0.00 | 31 | 1007.9 |
| 20260510102138 | 76 | 315 | 3.0 | 10.0 | 0.00 | 0.00 | 0.00 | 30 | 1007.9 |
| 20260510101936 | 77 | 315 | 9.0 | 10.0 | 0.00 | 0.00 | 0.00 | 31 | 1007.9 |
| 20260510101733 | 77 | 315 | 8.0 | 12.0 | 0.00 | 0.00 | 0.00 | 32 | 1007.9 |
| 20260510101531 | 77 | 315 | 6.0 | 12.0 | 0.00 | 0.00 | 0.00 | 32 | 1007.9 |
| 20260510101329 | 77 | 315 | 12.0 | 12.0 | 0.00 | 0.00 | 0.00 | 32 | 1007.8 |
| 20260510100520 | 77 | 315 | 9.0 | 11.0 | 0.00 | 0.00 | 0.00 | 32 | 1007.8 |
| 20260510100317 | 78 | 315 | 11.0 | 11.0 | 0.00 | 0.00 | 0.00 | 32 | 1007.8 |
| 20260510100115 | 78 | 315 | 11.0 | 11.0 | 0.00 | 0.00 | 0.00 | 33 | 1007.9 |
| 20260510095512 | 78 | 270 | 7.0 | 11.0 | 0.00 | 0.00 | 0.00 | 32 | 1007.7 |
| 20260510095306 | 78 | 303 | 8.0 | 11.0 | 0.00 | 0.00 | 0.00 | 31 | 1007.8 |
| 20260510095104 | 78 | 315 | 7.0 | 8.0 | 0.00 | 0.00 | 0.00 | 32 | 1007.9 |
| 20260510094902 | 78 | 337 | 7.0 | 11.0 | 0.00 | 0.00 | 0.00 | 31 | 1007.9 |
| 20260510094659 | 78 | 315 | 7.0 | 11.0 | 0.00 | 0.00 | 0.00 | 31 | 1007.8 |
| 20260510094052 | 79 | 281 | 9.0 | 9.0 | 0.00 | 0.00 | 0.00 | 31 | 1007.7 |
| 20260510093850 | 79 | 303 | 5.0 | 8.0 | 0.00 | 0.00 | 0.00 | 31 | 1007.6 |
| 20260510093457 | 79 | 315 | 5.0 | 9.0 | 0.00 | 0.00 | 0.00 | 29 | 1007.7 |
| 20260510093446 | 79 | 315 | 6.0 | 10.0 | 0.00 | 0.00 | 0.00 | 31 | 1007.7 |
| 20260510093243 | 79 | 315 | 4.0 | 10.0 | 0.00 | 0.00 | 0.00 | 30 | 1007.6 |
| 20260510093041 | 79 | 315 | 10.0 | 10.0 | 0.00 | 0.00 | 0.00 | 30 | 1007.7 |
| 20260510092839 | 79 | 315 | 5.0 | 9.0 | 0.00 | 0.00 | 0.00 | 29 | 1007.7 |
| 20260510092104 | 81 | 292 | 7.0 | 9.0 | 0.00 | 0.00 | 0.00 | 28 | 1007.5 |
| 20260510092029 | 81 | 292 | 7.0 | 9.0 | 0.00 | 0.00 | 0.00 | 28 | 1007.5 |
| 20260510091900 | 81 | 315 | 8.0 | 9.0 | 0.00 | 0.00 | 0.00 | 28 | 1007.6 |
| 20260510091827 | 81 | 315 | 8.0 | 9.0 | 0.00 | 0.00 | 0.00 | 28 | 1007.6 |
| 20260510091625 | 81 | 315 | 4.0 | 8.0 | 0.00 | 0.00 | 0.00 | 28 | 1007.5 |
| 20260510091220 | 81 | 315 | 4.0 | 7.0 | 0.00 | 0.00 | 0.00 | 27 | 1007.5 |
| 20260510091018 | 82 | 326 | 7.0 | 7.0 | 0.00 | 0.00 | 0.00 | 27 | 1007.5 |
| 20260510090615 | 82 | 315 | 5.0 | 6.0 | 0.00 | 0.00 | 0.00 | 28 | 1007.5 |
| 20260510090411 | 82 | 315 | 5.0 | 6.0 | 0.00 | 0.00 | 0.00 | 28 | 1007.6 |
| 20260510085805 | 82 | 315 | 5.0 | 6.0 | 0.00 | 0.00 | 0.00 | 28 | 1007.4 |
| 20260510085603 | 82 | 270 | 4.0 | 6.0 | 0.00 | 0.00 | 0.00 | 28 | 1007.5 |
| 20260510085511 | 82 | 292 | 4.0 | 6.0 | 0.00 | 0.00 | 0.00 | 28 | 1007.5 |
| 20260510085400 | 82 | 292 | 4.0 | 6.0 | 0.00 | 0.00 | 0.00 | 28 | 1007.5 |
| 20260510085200 | 82 | 292 | 5.0 | 6.0 | 0.00 | 0.00 | 0.00 | 28 | 1007.5 |
| 20260510084955 | 82 | 315 | 3.0 | 6.0 | 0.00 | 0.00 | 0.00 | 28 | 1007.5 |
| 20260510084753 | 82 | 315 | 5.0 | 6.0 | 0.00 | 0.00 | 0.00 | 27 | 1007.5 |
| 20260510084551 | 83 | 292 | 5.0 | 6.0 | 0.00 | 0.00 | 0.00 | 27 | 1007.4 |
| 20260510084349 | 83 | 258 | 4.0 | 6.0 | 0.00 | 0.00 | 0.00 | 26 | 1007.4 |
| 20260510083540 | 83 | 292 | 5.0 | 5.0 | 0.00 | 0.00 | 0.00 | 29 | 1007.4 |
| 20260510083338 | 83 | 292 | 5.0 | 5.0 | 0.00 | 0.00 | 0.00 | 29 | 1007.4 |
| 20260510082933 | 83 | 292 | 3.0 | 4.0 | 0.00 | 0.00 | 0.00 | 30 | 1007.4 |
| 20260510082731 | 83 | 292 | 2.0 | 4.0 | 0.00 | 0.00 | 0.00 | 29 | 1007.3 |
| 20260510082529 | 83 | 303 | 3.0 | 4.0 | 0.00 | 0.00 | 0.00 | 29 | 1007.4 |
| 20260510082124 | 83 | 303 | 3.0 | 4.0 | 0.00 | 0.00 | 0.00 | 29 | 1007.3 |
| 20260510081830 | 83 | 303 | 2.0 | 4.0 | 0.00 | 0.00 | 0.00 | 30 | 1007.3 |
| 20260510081721 | 83 | 303 | 2.0 | 4.0 | 0.00 | 0.00 | 0.00 | 30 | 1007.3 |
| 20260510081112 | 82 | 292 | 4.0 | 5.0 | 0.00 | 0.00 | 0.00 | 29 | 1007.2 |
| 20260510080746 | 82 | 270 | 5.0 | 6.0 | 0.00 | 0.00 | 0.00 | 29 | 1007.3 |
| 20260510080708 | 82 | 270 | 5.0 | 6.0 | 0.00 | 0.00 | 0.00 | 29 | 1007.3 |
| 20260510075923 | 82 | 315 | 1.0 | 3.0 | 0.00 | 0.00 | 0.00 | 31 | 1007.1 |
| 20260510075903 | 82 | 315 | 2.0 | 3.0 | 0.00 | 0.00 | 0.00 | 31 | 1007.2 |
| 20260510075657 | 82 | 315 | 1.0 | 3.0 | 0.00 | 0.00 | 0.00 | 31 | 1007.1 |
| 20260510075049 | 81 | 0 | 1.0 | 3.0 | 0.00 | 0.00 | 0.00 | 31 | 1007.1 |
| 20260510074847 | 81 | 292 | 3.0 | 3.0 | 0.00 | 0.00 | 0.00 | 32 | 1007.2 |
| 20260510074241 | 81 | 315 | 3.0 | 5.0 | 0.00 | 0.00 | 0.00 | 31 | 1007.1 |
| 20260510074039 | 81 | 303 | 4.0 | 6.0 | 0.00 | 0.00 | 0.00 | 31 | 1007.0 |
| 20260510073836 | 81 | 315 | 5.0 | 6.0 | 0.00 | 0.00 | 0.00 | 31 | 1007.1 |
| 20260510073432 | 81 | 292 | 6.0 | 7.0 | 0.00 | 0.00 | 0.00 | 32 | 1007.0 |
| 20260510073027 | 81 | 303 | 6.0 | 6.0 | 0.00 | 0.00 | 0.00 | 34 | 1006.9 |
| 20260510072825 | 81 | 315 | 5.0 | 6.0 | 0.00 | 0.00 | 0.00 | 35 | 1007.0 |
| 20260510072623 | 80 | 303 | 4.0 | 4.0 | 0.00 | 0.00 | 0.00 | 36 | 1006.8 |
| 20260510072218 | 80 | 45 | 0.0 | 1.0 | 0.00 | 0.00 | 0.00 | 37 | 1006.8 |
| 20260510072015 | 79 | 45 | 0.0 | 1.0 | 0.00 | 0.00 | 0.00 | 37 | 1006.8 |
| 20260510071814 | 79 | 247 | 0.0 | 1.0 | 0.00 | 0.00 | 0.00 | 38 | 1006.7 |
| 20260510071619 | 79 | 0 | 0.0 | 1.0 | 0.00 | 0.00 | 0.00 | 38 | 1006.8 |
| 20260510071409 | 79 | 247 | 0.0 | 1.0 | 0.00 | 0.00 | 0.00 | 38 | 1006.8 |
| 20260510071057 | 78 | 0 | 0.0 | 0.0 | 0.00 | 0.00 | 0.00 | 38 | 1006.8 |
| 20260510071004 | 78 | 0 | 0.0 | 0.0 | 0.00 | 0.00 | 0.00 | 38 | 1006.8 |
| 20260510070802 | 78 | 236 | 0.0 | 1.0 | 0.00 | 0.00 | 0.00 | 39 | 1006.8 |
| 20260510070600 | 77 | 247 | 1.0 | 1.0 | 0.00 | 0.00 | 0.00 | 40 | 1006.8 |
| 20260510070358 | 77 | 0 | 0.0 | 1.0 | 0.00 | 0.00 | 0.00 | 40 | 1006.9 |
| 20260510070155 | 77 | 315 | 0.0 | 1.0 | 0.00 | 0.00 | 0.00 | 40 | 1006.7 |
| 20260510065953 | 76 | 337 | 1.0 | 2.0 | 0.00 | 0.00 | 0.00 | 43 | 1006.8 |
| 20260510065914 | 76 | 292 | 2.0 | 2.0 | 0.00 | 0.00 | 0.00 | 41 | 1006.9 |
| 20260510065751 | 76 | 292 | 2.0 | 2.0 | 0.00 | 0.00 | 0.00 | 41 | 1006.9 |
| 20260510065630 | 76 | 292 | 1.0 | 2.0 | 0.00 | 0.00 | 0.00 | 41 | 1006.9 |
| 20260510065548 | 76 | 292 | 1.0 | 2.0 | 0.00 | 0.00 | 0.00 | 41 | 1006.9 |
| 20260510065346 | 75 | 337 | 0.0 | 0.0 | 0.00 | 0.00 | 0.00 | 41 | 1006.8 |
| 20260510065144 | 75 | 348 | 0.0 | 0.0 | 0.00 | 0.00 | 0.00 | 41 | 1006.9 |
| 20260510065057 | 75 | 45 | 0.0 | 0.0 | 0.00 | 0.00 | 0.00 | 41 | 1006.8 |
| 20260510065004 | 75 | 45 | 0.0 | 0.0 | 0.00 | 0.00 | 0.00 | 41 | 1006.8 |
| 20260510064049 | 73 | 22 | 1.0 | 1.0 | 0.00 | 0.00 | 0.00 | 43 | 1006.8 |
| 20260510063921 | 73 | 303 | 0.0 | 1.0 | 0.00 | 0.00 | 0.00 | 44 | 1006.9 |
| 20260510063847 | 73 | 303 | 0.0 | 1.0 | 0.00 | 0.00 | 0.00 | 44 | 1006.9 |
| 20260510063645 | 72 | 348 | 0.0 | 1.0 | 0.00 | 0.00 | 0.00 | 45 | 1006.9 |
| 20260510062840 | 70 | 348 | 1.0 | 1.0 | 0.00 | 0.00 | 0.00 | 45 | 1006.9 |
| 20260510062413 | 70 | 315 | 0.0 | 124.0 | 0.00 | 0.00 | 0.00 | 44 | 1006.7 |
| 20260510062212 | 69 | 225 | 0.0 | 124.0 | 0.00 | 0.00 | 0.00 | 43 | 1006.8 |
| 20260510062009 | 69 | 180 | 124.0 | 124.0 | 0.00 | 0.00 | 0.00 | 45 | 1006.7 |
| 20260510061707 | 68 | 247 | 0.0 | 123.0 | 0.00 | 0.00 | 0.00 | 45 | 1006.8 |
| 20260510061505 | 68 | 225 | 0.0 | 123.0 | 0.00 | 0.00 | 0.00 | 45 | 1006.8 |
| 20260510061411 | 67 | 0 | 123.0 | 123.0 | 0.00 | 0.00 | 0.00 | 46 | 1006.6 |
| 20260510061303 | 67 | 0 | 123.0 | 123.0 | 0.00 | 0.00 | 0.00 | 46 | 1006.6 |
| 20260510061052 | 67 | 315 | 0.0 | 2.0 | 0.00 | 0.00 | 0.00 | 48 | 1006.7 |
| 20260510060850 | 66 | 337 | 2.0 | 126.0 | 0.00 | 0.00 | 0.00 | 45 | 1006.8 |
| 20260510060648 | 66 | 292 | 1.0 | 126.0 | 0.00 | 0.00 | 0.00 | 45 | 1006.8 |
| 20260510060546 | 66 | 225 | 126.0 | 126.0 | 0.00 | 0.00 | 0.00 | 45 | 1006.7 |
| 20260510060332 | 65 | 236 | 2.0 | 4.0 | 0.00 | 0.00 | 0.00 | 45 | 1006.7 |
| 20260510055927 | 65 | 45 | 3.0 | 3.0 | 0.00 | 0.00 | 0.00 | 47 | 1006.7 |
| 20260510055655 | 64 | 236 | 3.0 | 123.0 | 0.00 | 0.00 | 0.00 | 48 | 1006.8 |
| 20260510055123 | 63 | 292 | 0.0 | 1.0 | 0.00 | 0.00 | 0.00 | 49 | 1006.8 |
| 20260510054517 | 62 | 292 | 0.0 | 0.0 | 0.00 | 0.00 | 0.00 | 49 | 1006.9 |
| 20260510054209 | 62 | 247 | 0.0 | 3.0 | 0.00 | 0.00 | 0.00 | 47 | 1007.0 |
| 20260510054007 | 61 | 45 | 2.0 | 126.0 | 0.00 | 0.00 | 0.00 | 48 | 1006.9 |
| 20260510053703 | 61 | 33 | 126.0 | 126.0 | 0.00 | 0.00 | 0.00 | 49 | 1006.7 |
| 20260510053615 | 61 | 45 | 3.0 | 3.0 | 0.00 | 0.00 | 0.00 | 50 | 1006.9 |
| 20260510053417 | 60 | 45 | 3.0 | 3.0 | 0.00 | 0.00 | 0.00 | 51 | 1006.8 |
| 20260510053211 | 60 | 236 | 2.0 | 2.0 | 0.00 | 0.00 | 0.00 | 52 | 1006.8 |
| 20260510053008 | 60 | 326 | 0.0 | 0.0 | 0.00 | 0.00 | 0.00 | 52 | 1006.9 |
| 20260510052102 | 58 | 225 | 126.0 | 126.0 | 0.00 | 0.00 | 0.00 | 50 | 1006.9 |
| 20260510052040 | 58 | 225 | 1.0 | 5.0 | 0.00 | 0.00 | 0.00 | 50 | 1006.8 |
| 20260510051838 | 58 | 247 | 4.0 | 5.0 | 0.00 | 0.00 | 0.00 | 51 | 1006.9 |
| 20260510051231 | 58 | 0 | 7.0 | 8.0 | 0.00 | 0.00 | 0.00 | 51 | 1006.8 |
| 20260510051034 | 58 | 0 | 7.0 | 8.0 | 0.00 | 0.00 | 0.00 | 51 | 1007.0 |
| 20260510050625 | 57 | 0 | 5.0 | 7.0 | 0.00 | 0.00 | 0.00 | 51 | 1006.9 |
| 20260510050422 | 57 | 0 | 6.0 | 6.0 | 0.00 | 0.00 | 0.00 | 52 | 1007.0 |
| 20260510045817 | 57 | 0 | 3.0 | 123.0 | 0.00 | 0.00 | 0.00 | 52 | 1006.6 |
| 20260510045614 | 57 | 348 | 0.0 | 123.0 | 0.00 | 0.00 | 0.00 | 52 | 1006.9 |
| 20260510045511 | 57 | 337 | 123.0 | 123.0 | 0.00 | 0.00 | 0.00 | 51 | 1006.7 |
| 20260510044731 | 57 | 247 | 7.0 | 8.0 | 0.00 | 0.00 | 0.00 | 52 | 1006.8 |
| 20260510044528 | 57 | 0 | 8.0 | 8.0 | 0.00 | 0.00 | 0.00 | 52 | 1006.9 |
| 20260510044325 | 57 | 0 | 5.0 | 7.0 | 0.00 | 0.00 | 0.00 | 52 | 1007.0 |
| 20260510044123 | 57 | 0 | 6.0 | 6.0 | 0.00 | 0.00 | 0.00 | 53 | 1007.1 |
| 20260510043318 | 57 | 292 | 5.0 | 6.0 | 0.00 | 0.00 | 0.00 | 53 | 1007.0 |
| 20260510042914 | 57 | 247 | 6.0 | 7.0 | 0.00 | 0.00 | 0.00 | 54 | 1006.8 |
| 20260510042710 | 57 | 247 | 5.0 | 7.0 | 0.00 | 0.00 | 0.00 | 54 | 1007.2 |
| 20260510042002 | 57 | 348 | 126.0 | 126.0 | 0.00 | 0.00 | 0.00 | 54 | 1006.9 |
| 20260510041658 | 57 | 0 | 5.0 | 7.0 | 0.00 | 0.00 | 0.00 | 55 | 1007.0 |
| 20260510041456 | 57 | 292 | 7.0 | 7.0 | 0.00 | 0.00 | 0.00 | 54 | 1006.8 |
| 20260510041051 | 57 | 45 | 6.0 | 10.0 | 0.00 | 0.00 | 0.00 | 55 | 1006.8 |
| 20260510040850 | 57 | 348 | 8.0 | 10.0 | 0.00 | 0.00 | 0.00 | 55 | 1007.0 |
| 20260510040647 | 57 | 0 | 8.0 | 8.0 | 0.00 | 0.00 | 0.00 | 54 | 1006.9 |
| 20260510040411 | 58 | 247 | 5.0 | 7.0 | 0.00 | 0.00 | 0.00 | 56 | 1007.1 |
| 20260510040243 | 58 | 247 | 6.0 | 7.0 | 0.00 | 0.00 | 0.00 | 55 | 1007.3 |
| 20260510035833 | 58 | 247 | 5.0 | 7.0 | 0.00 | 0.00 | 0.00 | 56 | 1007.1 |
| 20260510035631 | 58 | 337 | 7.0 | 7.0 | 0.00 | 0.00 | 0.00 | 56 | 1007.2 |
| 20260510035227 | 58 | 247 | 6.0 | 7.0 | 0.00 | 0.00 | 0.00 | 56 | 1006.8 |
| 20260510035027 | 58 | 0 | 7.0 | 7.0 | 0.00 | 0.00 | 0.00 | 56 | 1007.0 |
| 20260510035025 | 58 | 0 | 6.0 | 6.0 | 0.00 | 0.00 | 0.00 | 51 | 1007.1 |
| 20260510034953 | 58 | 0 | 7.0 | 7.0 | 0.00 | 0.00 | 0.00 | 56 | 1007.0 |
| 20260510034800 | 58 | 247 | 5.0 | 7.0 | 0.00 | 0.00 | 0.00 | 55 | 1007.0 |
| 20260510034620 | 58 | 247 | 5.0 | 7.0 | 0.00 | 0.00 | 0.00 | 55 | 1006.9 |
| 20260510034548 | 58 | 247 | 5.0 | 7.0 | 0.00 | 0.00 | 0.00 | 55 | 1006.9 |
| 20260510034144 | 58 | 247 | 6.0 | 6.0 | 0.00 | 0.00 | 0.00 | 57 | 1006.6 |
| 20260510033952 | 58 | 45 | 5.0 | 6.0 | 0.00 | 0.00 | 0.00 | 55 | 1007.1 |
| 20260510033737 | 58 | 247 | 4.0 | 6.0 | 0.00 | 0.00 | 0.00 | 57 | 1006.7 |
| 20260510032736 | 58 | 45 | 6.0 | 6.0 | 0.00 | 0.00 | 0.00 | 59 | 1007.2 |
| 20260510032534 | 58 | 247 | 4.0 | 6.0 | 0.00 | 0.00 | 0.00 | 57 | 1007.3 |
| 20260510032331 | 58 | 45 | 3.0 | 6.0 | 0.00 | 0.00 | 0.00 | 55 | 1007.2 |
| 20260510032139 | 58 | 236 | 5.0 | 7.0 | 0.00 | 0.00 | 0.00 | 55 | 1007.4 |
| 20260510031927 | 58 | 247 | 3.0 | 7.0 | 0.00 | 0.00 | 0.00 | 57 | 1007.4 |
| 20260510031725 | 58 | 45 | 3.0 | 5.0 | 0.00 | 0.00 | 0.00 | 57 | 1007.4 |
| 20260510031523 | 58 | 45 | 3.0 | 3.0 | 0.00 | 0.00 | 0.00 | 57 | 1007.1 |
| 20260510031449 | 58 | 247 | 5.0 | 6.0 | 0.00 | 0.00 | 0.00 | 58 | 1007.0 |
| 20260510031353 | 58 | 247 | 5.0 | 6.0 | 0.00 | 0.00 | 0.00 | 58 | 1007.0 |
| 20260510030948 | 58 | 22 | 4.0 | 7.0 | 0.00 | 0.00 | 0.00 | 55 | 1007.5 |
| 20260510030540 | 58 | 348 | 4.0 | 5.0 | 0.00 | 0.00 | 0.00 | 56 | 1007.0 |
| 20260510030339 | 58 | 0 | 5.0 | 6.0 | 0.00 | 0.00 | 0.00 | 57 | 1007.4 |
| 20260510030137 | 58 | 0 | 5.0 | 6.0 | 0.00 | 0.00 | 0.00 | 58 | 1007.5 |
| 20260510025732 | 58 | 0 | 5.0 | 6.0 | 0.00 | 0.00 | 0.00 | 58 | 1007.5 |
| 20260510025130 | 58 | 247 | 6.0 | 129.0 | 0.00 | 0.00 | 0.00 | 55 | 1007.5 |
| 20260510025023 | 58 | 0 | 129.0 | 129.0 | 0.00 | 0.00 | 0.00 | 57 | 1007.4 |
| 20260510024548 | 58 | 45 | 4.0 | 7.0 | 0.00 | 0.00 | 0.00 | 57 | 1007.0 |
| 20260510024346 | 58 | 45 | 4.0 | 6.0 | 0.00 | 0.00 | 0.00 | 58 | 1007.5 |
| 20260510024144 | 58 | 45 | 3.0 | 5.0 | 0.00 | 0.00 | 0.00 | 58 | 1007.6 |
| 20260510023739 | 58 | 45 | 4.0 | 129.0 | 0.00 | 0.00 | 0.00 | 56 | 1007.6 |
| 20260510023637 | 58 | 45 | 129.0 | 129.0 | 0.00 | 0.00 | 0.00 | 53 | 1007.5 |
| 20260510023529 | 58 | 45 | 130.0 | 130.0 | 0.00 | 0.00 | 0.00 | 57 | 1007.2 |
| 20260510023142 | 58 | 45 | 3.0 | 5.0 | 0.00 | 0.00 | 0.00 | 58 | 1007.6 |
| 20260510022735 | 58 | 337 | 3.0 | 5.0 | 0.00 | 0.00 | 0.00 | 58 | 1007.5 |
| 20260510022533 | 58 | 45 | 4.0 | 5.0 | 0.00 | 0.00 | 0.00 | 58 | 1007.5 |
| 20260510022332 | 58 | 45 | 5.0 | 5.0 | 0.00 | 0.00 | 0.00 | 55 | 1007.4 |
| 20260510022110 | 58 | 11 | 5.0 | 7.0 | 0.00 | 0.00 | 0.00 | 59 | 1007.4 |
| 20260510021702 | 58 | 45 | 4.0 | 7.0 | 0.00 | 0.00 | 0.00 | 58 | 1007.5 |
| 20260510021502 | 59 | 45 | 7.0 | 7.0 | 0.00 | 0.00 | 0.00 | 57 | 1007.0 |
| 20260510021300 | 59 | 45 | 6.0 | 6.0 | 0.00 | 0.00 | 0.00 | 55 | 1007.5 |
| 20260510021109 | 59 | 45 | 6.0 | 7.0 | 0.00 | 0.00 | 0.00 | 59 | 1007.4 |
| 20260510020900 | 59 | 45 | 6.0 | 9.0 | 0.00 | 0.00 | 0.00 | 57 | 1007.5 |
| 20260510020658 | 59 | 45 | 6.0 | 9.0 | 0.00 | 0.00 | 0.00 | 58 | 1007.5 |
| 20260510020454 | 59 | 45 | 6.0 | 9.0 | 0.00 | 0.00 | 0.00 | 59 | 1007.5 |
| 20260510020051 | 59 | 45 | 5.0 | 10.0 | 0.00 | 0.00 | 0.00 | 56 | 1007.3 |
| 20260510015849 | 59 | 45 | 8.0 | 130.0 | 0.00 | 0.00 | 0.00 | 56 | 1007.4 |
| 20260510015648 | 59 | 22 | 4.0 | 130.0 | 0.00 | 0.00 | 0.00 | 59 | 1007.2 |
| 20260510015543 | 59 | 45 | 130.0 | 130.0 | 0.00 | 0.00 | 0.00 | 59 | 1007.6 |
| 20260510014835 | 59 | 22 | 6.0 | 130.0 | 0.00 | 0.00 | 0.00 | 60 | 1007.8 |
| 20260510014633 | 59 | 45 | 6.0 | 130.0 | 0.00 | 0.00 | 0.00 | 58 | 1007.6 |
| 20260510014530 | 59 | 45 | 130.0 | 130.0 | 0.00 | 0.00 | 0.00 | 59 | 1007.6 |
| 20260510014408 | 59 | 45 | 9.0 | 10.0 | 0.00 | 0.00 | 0.00 | 65 | 1007.5 |
| 20260510014002 | 59 | 247 | 9.0 | 9.0 | 0.00 | 0.00 | 0.00 | 58 | 1007.6 |
| 20260510013800 | 59 | 45 | 8.0 | 11.0 | 0.00 | 0.00 | 0.00 | 60 | 1007.3 |
| 20260510013559 | 59 | 45 | 7.0 | 134.0 | 0.00 | 0.00 | 0.00 | 59 | 1007.8 |
| 20260510012959 | 59 | 45 | 8.0 | 13.0 | 0.00 | 0.00 | 0.00 | 59 | 1007.5 |
| 20260510012756 | 59 | 45 | 7.0 | 13.0 | 0.00 | 0.00 | 0.00 | 57 | 1007.7 |
| 20260510012555 | 59 | 45 | 7.0 | 10.0 | 0.00 | 0.00 | 0.00 | 57 | 1007.7 |
| 20260510012150 | 59 | 45 | 5.0 | 11.0 | 0.00 | 0.00 | 0.00 | 60 | 1007.2 |
| 20260510011947 | 60 | 45 | 8.0 | 8.0 | 0.00 | 0.00 | 0.00 | 58 | 1007.5 |
| 20260510011658 | 60 | 45 | 9.0 | 10.0 | 0.00 | 0.00 | 0.00 | 55 | 1007.4 |
| 20260510011454 | 60 | 45 | 6.0 | 9.0 | 0.00 | 0.00 | 0.00 | 59 | 1007.4 |
| 20260510011050 | 60 | 45 | 7.0 | 9.0 | 0.00 | 0.00 | 0.00 | 59 | 1007.5 |
| 20260510010720 | 60 | 45 | 7.0 | 7.0 | 0.00 | 0.00 | 0.00 | 60 | 1007.9 |
| 20260510010647 | 60 | 45 | 7.0 | 7.0 | 0.00 | 0.00 | 0.00 | 60 | 1007.9 |
| 20260510010409 | 60 | 45 | 7.0 | 9.0 | 0.00 | 0.00 | 0.00 | 54 | 1007.8 |
| 20260510010208 | 60 | 45 | 9.0 | 9.0 | 0.00 | 0.00 | 0.00 | 58 | 1008.0 |
| 20260510005804 | 60 | 45 | 6.0 | 130.0 | 0.00 | 0.00 | 0.00 | 57 | 1008.0 |
| 20260510005602 | 60 | 45 | 6.0 | 130.0 | 0.00 | 0.00 | 0.00 | 58 | 1007.1 |
| 20260510005001 | 61 | 45 | 5.0 | 7.0 | 0.00 | 0.00 | 0.00 | 53 | 1008.0 |
| 20260510004834 | 61 | 45 | 4.0 | 129.0 | 0.00 | 0.00 | 0.00 | 57 | 1008.0 |
| 20260510004801 | 61 | 45 | 4.0 | 129.0 | 0.00 | 0.00 | 0.00 | 57 | 1008.0 |
| 20260510004632 | 61 | 45 | 5.0 | 129.0 | 0.00 | 0.00 | 0.00 | 54 | 1008.0 |
| 20260510004558 | 61 | 45 | 5.0 | 129.0 | 0.00 | 0.00 | 0.00 | 54 | 1008.0 |
| 20260510004253 | 61 | 22 | 4.0 | 6.0 | 0.00 | 0.00 | 0.00 | 57 | 1008.1 |
| 20260510004216 | 61 | 22 | 4.0 | 6.0 | 0.00 | 0.00 | 0.00 | 57 | 1008.1 |
| 20260510004057 | 61 | 45 | 5.0 | 5.0 | 0.00 | 0.00 | 0.00 | 56 | 1008.4 |
| 20260510004013 | 61 | 45 | 5.0 | 5.0 | 0.00 | 0.00 | 0.00 | 56 | 1008.4 |
| 20260510003810 | 61 | 45 | 5.0 | 6.0 | 0.00 | 0.00 | 0.00 | 58 | 1008.3 |
| 20260510003609 | 61 | 45 | 5.0 | 128.0 | 0.00 | 0.00 | 0.00 | 56 | 1008.2 |
| 20260510003342 | 61 | 45 | 128.0 | 128.0 | 0.00 | 0.00 | 0.00 | 55 | 1008.3 |
| 20260510003333 | 61 | 45 | 5.0 | 6.0 | 0.00 | 0.00 | 0.00 | 53 | 1008.4 |
| 20260510003305 | 61 | 45 | 128.0 | 128.0 | 0.00 | 0.00 | 0.00 | 55 | 1008.3 |
| 20260510003220 | 61 | 45 | 5.0 | 6.0 | 0.00 | 0.00 | 0.00 | 53 | 1008.4 |
| 20260510003016 | 61 | 45 | 5.0 | 6.0 | 0.00 | 0.00 | 0.00 | 57 | 1008.3 |
| 20260510002813 | 61 | 236 | 5.0 | 5.0 | 0.00 | 0.00 | 0.00 | 56 | 1008.5 |
| 20260510002613 | 61 | 45 | 4.0 | 4.0 | 0.00 | 0.00 | 0.00 | 57 | 1008.4 |
| 20260510002209 | 62 | 45 | 2.0 | 126.0 | 0.00 | 0.00 | 0.00 | 56 | 1008.6 |
| 20260510002105 | 62 | 45 | 126.0 | 126.0 | 0.00 | 0.00 | 0.00 | 54 | 1008.2 |
| 20260510002027 | 62 | 45 | 4.0 | 4.0 | 0.00 | 0.00 | 0.00 | 56 | 1008.3 |
| 20260510001951 | 62 | 45 | 4.0 | 4.0 | 0.00 | 0.00 | 0.00 | 56 | 1008.3 |
| 20260510001618 | 62 | 45 | 2.0 | 3.0 | 0.00 | 0.00 | 0.00 | 54 | 1008.6 |
| 20260510001428 | 62 | 45 | 3.0 | 3.0 | 0.00 | 0.00 | 0.00 | 54 | 1008.4 |
| 20260510001215 | 62 | 45 | 2.0 | 2.0 | 0.00 | 0.00 | 0.00 | 55 | 1008.7 |
| 20260510001013 | 62 | 45 | 1.0 | 1.0 | 0.00 | 0.00 | 0.00 | 55 | 1008.7 |
| 20260510000940 | 62 | 45 | 0.0 | 1.0 | 0.00 | 0.00 | 0.00 | 55 | 1008.5 |
| 20260510000737 | 62 | 337 | 0.0 | 1.0 | 0.00 | 0.00 | 0.00 | 55 | 1008.6 |
| 20260510000535 | 62 | 225 | 0.0 | 124.0 | 0.00 | 0.00 | 0.00 | 54 | 1008.8 |
| 20260510000222 | 62 | 337 | 124.0 | 124.0 | 0.00 | 0.00 | 0.00 | 54 | 1008.7 |
| 20260509235829 | 62 | 292 | 2.0 | 3.0 | 0.00 | 0.00 | 0.00 | 54 | 1008.7 |
| 20260509235752 | 62 | 292 | 2.0 | 3.0 | 0.00 | 0.00 | 0.00 | 54 | 1008.7 |
| 20260509235550 | 62 | 315 | 3.0 | 124.0 | 0.00 | 0.00 | 0.00 | 55 | 1008.6 |
| 20260509235350 | 62 | 315 | 1.0 | 124.0 | 0.00 | 0.00 | 0.00 | 55 | 1008.7 |
| 20260509235317 | 62 | 292 | 124.0 | 124.0 | 0.00 | 0.00 | 0.00 | 55 | 1008.6 |
| 20260509235246 | 62 | 292 | 124.0 | 124.0 | 0.00 | 0.00 | 0.00 | 55 | 1008.6 |
| 20260509235206 | 62 | 315 | 1.0 | 3.0 | 0.00 | 0.00 | 0.00 | 55 | 1008.6 |
| 20260509234955 | 62 | 315 | 2.0 | 3.0 | 0.00 | 0.00 | 0.00 | 57 | 1008.5 |
| 20260509234754 | 62 | 315 | 2.0 | 126.0 | 0.00 | 0.00 | 0.00 | 56 | 1008.7 |
| 20260509234550 | 62 | 292 | 3.0 | 126.0 | 0.00 | 0.00 | 0.00 | 54 | 1008.8 |
| 20260509234449 | 62 | 270 | 126.0 | 126.0 | 0.00 | 0.00 | 0.00 | 54 | 1008.7 |
| 20260509234315 | 62 | 270 | 3.0 | 6.0 | 0.00 | 0.00 | 0.00 | 55 | 1008.8 |
| 20260509233913 | 62 | 270 | 2.0 | 3.0 | 0.00 | 0.00 | 0.00 | 55 | 1008.5 |
| 20260509233505 | 62 | 315 | 0.0 | 0.0 | 0.00 | 0.00 | 0.00 | 56 | 1008.2 |
| 20260509232724 | 62 | 270 | 3.0 | 127.0 | 0.00 | 0.00 | 0.00 | 56 | 1008.5 |
| 20260509232520 | 62 | 315 | 3.0 | 127.0 | 0.00 | 0.00 | 0.00 | 56 | 1008.7 |
| 20260509232355 | 62 | 292 | 3.0 | 3.0 | 0.00 | 0.00 | 0.00 | 55 | 1008.8 |
| 20260509231951 | 62 | 315 | 1.0 | 6.0 | 0.00 | 0.00 | 0.00 | 55 | 1008.6 |
| 20260509231754 | 62 | 315 | 3.0 | 131.0 | 0.00 | 0.00 | 0.00 | 56 | 1008.2 |
| 20260509231616 | 62 | 315 | 5.0 | 131.0 | 0.00 | 0.00 | 0.00 | 56 | 1008.2 |
| 20260509231545 | 62 | 315 | 5.0 | 131.0 | 0.00 | 0.00 | 0.00 | 56 | 1008.2 |
| 20260509231250 | 62 | 270 | 3.0 | 8.0 | 0.00 | 0.00 | 0.00 | 56 | 1008.6 |
| 20260509230916 | 62 | 315 | 2.0 | 4.0 | 0.00 | 0.00 | 0.00 | 55 | 1008.6 |
| 20260509230845 | 62 | 315 | 2.0 | 4.0 | 0.00 | 0.00 | 0.00 | 55 | 1008.6 |
| 20260509230644 | 62 | 292 | 4.0 | 4.0 | 0.00 | 0.00 | 0.00 | 55 | 1008.5 |
| 20260509230411 | 62 | 270 | 1.0 | 3.0 | 0.00 | 0.00 | 0.02 | 55 | 1008.5 |
| 20260509230206 | 62 | 292 | 3.0 | 3.0 | 0.00 | 0.00 | 0.02 | 54 | 1008.5 |
| 20260509230006 | 62 | 270 | 1.0 | 5.0 | 0.00 | 0.00 | 0.02 | 53 | 1008.6 |
| 20260509225256 | 62 | 292 | 2.0 | 4.0 | 0.00 | 0.00 | 0.00 | 52 | 1008.7 |
| 20260509225052 | 62 | 270 | 1.0 | 4.0 | 0.00 | 0.00 | 0.00 | 51 | 1008.7 |
| 20260509224649 | 62 | 315 | 1.0 | 2.0 | 0.00 | 0.00 | 0.00 | 56 | 1008.3 |
| 20260509224348 | 62 | 270 | 1.0 | 3.0 | 0.00 | 0.00 | 0.00 | 51 | 1008.8 |
| 20260509224141 | 62 | 292 | 2.0 | 3.0 | 0.00 | 0.00 | 0.00 | 52 | 1008.8 |
| 20260509223938 | 62 | 315 | 1.0 | 3.0 | 0.00 | 0.00 | 0.00 | 51 | 1008.9 |
| 20260509223736 | 62 | 315 | 3.0 | 3.0 | 0.00 | 0.00 | 0.00 | 52 | 1008.9 |
| 20260509223613 | 62 | 315 | 1.0 | 127.0 | 0.00 | 0.00 | 0.00 | 52 | 1008.9 |
| 20260509223533 | 62 | 315 | 1.0 | 127.0 | 0.00 | 0.00 | 0.00 | 52 | 1008.9 |
| 20260509223332 | 62 | 270 | 1.0 | 127.0 | 0.00 | 0.00 | 0.00 | 52 | 1008.9 |
| 20260509223230 | 62 | 315 | 127.0 | 127.0 | 0.00 | 0.00 | 0.00 | 52 | 1009.0 |
| 20260509223201 | 62 | 292 | 3.0 | 4.0 | 0.00 | 0.00 | 0.00 | 52 | 1008.9 |
| 20260509222956 | 62 | 315 | 1.0 | 4.0 | 0.00 | 0.00 | 0.00 | 52 | 1008.9 |
| 20260509222755 | 62 | 270 | 2.0 | 3.0 | 0.00 | 0.00 | 0.00 | 52 | 1008.8 |
| 20260509222624 | 62 | 315 | 2.0 | 3.0 | 0.00 | 0.00 | 0.00 | 52 | 1008.7 |
| 20260509222553 | 62 | 315 | 2.0 | 3.0 | 0.00 | 0.00 | 0.00 | 52 | 1008.7 |
| 20260509222351 | 62 | 292 | 3.0 | 126.0 | 0.00 | 0.00 | 0.00 | 51 | 1008.8 |
| 20260509222147 | 62 | 315 | 2.0 | 126.0 | 0.00 | 0.00 | 0.00 | 52 | 1008.8 |
| 20260509221948 | 62 | 270 | 3.0 | 5.0 | 0.00 | 0.00 | 0.00 | 52 | 1008.8 |
| 20260509221746 | 62 | 315 | 4.0 | 7.0 | 0.00 | 0.00 | 0.00 | 51 | 1008.7 |
| 20260509221543 | 62 | 270 | 2.0 | 7.0 | 0.00 | 0.00 | 0.00 | 54 | 1008.7 |
| 20260509221345 | 62 | 315 | 7.0 | 7.0 | 0.00 | 0.00 | 0.00 | 51 | 1008.5 |
| 20260509221138 | 62 | 303 | 3.0 | 126.0 | 0.00 | 0.00 | 0.00 | 52 | 1008.7 |
| 20260509220747 | 62 | 292 | 2.0 | 8.0 | 0.00 | 0.00 | 0.00 | 51 | 1008.4 |
| 20260509220709 | 62 | 292 | 2.0 | 8.0 | 0.00 | 0.00 | 0.00 | 51 | 1008.4 |
| 20260509215901 | 62 | 270 | 2.0 | 5.0 | 0.00 | 0.00 | 0.00 | 53 | 1008.5 |
| 20260509215659 | 62 | 315 | 2.0 | 3.0 | 0.00 | 0.00 | 0.00 | 52 | 1008.0 |
| 20260509215456 | 62 | 270 | 2.0 | 2.0 | 0.00 | 0.00 | 0.00 | 52 | 1008.3 |
| 20260509215351 | 62 | 315 | 6.0 | 6.0 | 0.00 | 0.00 | 0.00 | 52 | 1008.2 |
| 20260509215125 | 62 | 348 | 3.0 | 3.0 | 0.00 | 0.00 | 0.00 | 52 | 1008.2 |
| 20260509214946 | 62 | 348 | 3.0 | 3.0 | 0.00 | 0.00 | 0.00 | 52 | 1008.2 |
| 20260509214543 | 62 | 0 | 0.0 | 1.0 | 0.00 | 0.00 | 0.00 | 51 | 1008.0 |
| 20260509214001 | 62 | 0 | 2.0 | 2.0 | 0.00 | 0.00 | 0.00 | 52 | 1008.1 |
| 20260509213556 | 62 | 337 | 0.0 | 0.0 | 0.00 | 0.00 | 0.00 | 52 | 1008.1 |
| 20260509213059 | 63 | 315 | 1.0 | 1.0 | 0.00 | 0.00 | 0.00 | 51 | 1008.0 |
| 20260509212949 | 63 | 315 | 1.0 | 1.0 | 0.00 | 0.00 | 0.00 | 51 | 1008.0 |
| 20260509212739 | 63 | 315 | 0.0 | 1.0 | 0.00 | 0.00 | 0.00 | 50 | 1008.0 |
| 20260509212537 | 63 | 315 | 0.0 | 1.0 | 0.00 | 0.00 | 0.00 | 51 | 1007.9 |
| 20260509212337 | 63 | 270 | 0.0 | 2.0 | 0.00 | 0.00 | 0.00 | 50 | 1007.9 |
| 20260509211930 | 63 | 315 | 2.0 | 2.0 | 0.00 | 0.00 | 0.00 | 50 | 1007.7 |
| 20260509211901 | 63 | 270 | 1.0 | 4.0 | 0.00 | 0.00 | 0.00 | 51 | 1007.6 |
| 20260509211721 | 63 | 270 | 3.0 | 4.0 | 0.00 | 0.00 | 0.00 | 51 | 1007.7 |
| 20260509211645 | 63 | 270 | 3.0 | 4.0 | 0.00 | 0.00 | 0.00 | 51 | 1007.7 |
| 20260509211443 | 63 | 270 | 3.0 | 3.0 | 0.00 | 0.00 | 0.00 | 50 | 1007.7 |
| 20260509211246 | 63 | 303 | 3.0 | 126.0 | 0.00 | 0.00 | 0.00 | 50 | 1007.6 |
| 20260509211039 | 63 | 315 | 3.0 | 126.0 | 0.00 | 0.00 | 0.00 | 50 | 1007.7 |
| 20260509210937 | 63 | 315 | 126.0 | 126.0 | 0.00 | 0.00 | 0.00 | 51 | 1007.7 |
| 20260509210537 | 63 | 270 | 1.0 | 1.0 | 0.00 | 0.00 | 0.00 | 50 | 1007.5 |
| 20260509210335 | 63 | 315 | 1.0 | 2.0 | 0.00 | 0.00 | 0.00 | 50 | 1007.7 |
| 20260509210133 | 63 | 292 | 1.0 | 2.0 | 0.00 | 0.00 | 0.00 | 50 | 1007.7 |
| 20260509205930 | 63 | 270 | 2.0 | 2.0 | 0.00 | 0.00 | 0.00 | 51 | 1007.7 |
| 20260509205644 | 63 | 292 | 2.0 | 2.0 | 0.00 | 0.00 | 0.00 | 49 | 1007.7 |
| 20260509205442 | 63 | 270 | 2.0 | 3.0 | 0.00 | 0.00 | 0.00 | 50 | 1007.6 |
| 20260509205039 | 63 | 315 | 2.0 | 126.0 | 0.00 | 0.00 | 0.00 | 49 | 1007.7 |
| 20260509204541 | 63 | 315 | 3.0 | 5.0 | 0.00 | 0.00 | 0.00 | 50 | 1007.7 |
| 20260509204435 | 63 | 315 | 3.0 | 5.0 | 0.00 | 0.00 | 0.00 | 50 | 1007.7 |
| 20260509204241 | 0 | 292 | 5.0 | 0.0 | 0.00 | 0.00 | 0.00 | ||
| 20260509204233 | 63 | 292 | 5.0 | 5.0 | 0.00 | 0.00 | 0.00 | 50 | 1007.7 |
| 20260509204033 | 63 | 0 | 3.0 | 3.0 | 0.00 | 0.00 | 0.00 | 47 | 1007.5 |
| 20260509203934 | 63 | 348 | 2.0 | 3.0 | 0.00 | 0.00 | 0.00 | 50 | 1007.7 |
| 20260509203736 | 63 | 337 | 1.0 | 2.0 | 0.00 | 0.00 | 0.00 | 50 | 1007.7 |
| 20260509203733 | 63 | 337 | 1.0 | 2.0 | 0.00 | 0.00 | 0.00 | 50 | 1007.7 |
| 20260509203530 | 63 | 337 | 1.0 | 2.0 | 0.00 | 0.00 | 0.00 | 50 | 1007.7 |
| 20260509203328 | 63 | 0 | 1.0 | 3.0 | 0.00 | 0.00 | 0.00 | 50 | 1007.7 |
| 20260509203131 | 63 | 315 | 3.0 | 3.0 | 0.00 | 0.00 | 0.00 | 50 | 1007.6 |
| 20260509202923 | 63 | 0 | 2.0 | 2.0 | 0.00 | 0.00 | 0.00 | 50 | 1007.5 |
| 20260509202720 | 63 | 0 | 1.0 | 1.0 | 0.00 | 0.00 | 0.00 | 49 | 1007.5 |
| 20260509202518 | 63 | 303 | 0.0 | 2.0 | 0.00 | 0.00 | 0.00 | 49 | 1007.6 |
| 20260509202114 | 63 | 315 | 2.0 | 2.0 | 0.00 | 0.00 | 0.00 | 48 | 1007.5 |
| 20260509202038 | 63 | 315 | 2.0 | 2.0 | 0.00 | 0.00 | 0.00 | 49 | 1007.5 |
| 20260509201836 | 64 | 315 | 1.0 | 1.0 | 0.00 | 0.00 | 0.00 | 48 | 1007.4 |
| 20260509201635 | 64 | 270 | 0.0 | 0.0 | 0.00 | 0.00 | 0.00 | 50 | 1007.4 |
| 20260509201230 | 64 | 270 | 0.0 | 0.0 | 0.00 | 0.00 | 0.00 | 49 | 1007.5 |
| 20260509200746 | 64 | 315 | 2.0 | 3.0 | 0.00 | 0.00 | 0.00 | 48 | 1007.3 |
| 20260509200544 | 64 | 315 | 2.0 | 127.0 | 0.00 | 0.00 | 0.00 | 48 | 1007.4 |
| 20260509200342 | 64 | 315 | 4.0 | 127.0 | 0.00 | 0.00 | 0.00 | 48 | 1007.4 |
| 20260509200208 | 64 | 315 | 3.0 | 3.0 | 0.00 | 0.00 | 0.00 | 49 | 1007.3 |
| 20260509200006 | 64 | 315 | 3.0 | 3.0 | 0.00 | 0.00 | 0.00 | 48 | 1007.3 |
| 20260509195804 | 64 | 303 | 3.0 | 4.0 | 0.00 | 0.00 | 0.00 | 48 | 1007.4 |
| 20260509195359 | 64 | 292 | 4.0 | 127.0 | 0.00 | 0.00 | 0.00 | 47 | 1007.2 |
| 20260509195257 | 64 | 337 | 127.0 | 127.0 | 0.00 | 0.00 | 0.00 | 47 | 1007.2 |
| 20260509195237 | 64 | 0 | 3.0 | 3.0 | 0.00 | 0.00 | 0.00 | 47 | 1007.2 |
| 20260509195034 | 64 | 337 | 3.0 | 3.0 | 0.00 | 0.00 | 0.00 | 47 | 1007.2 |
| 20260509194226 | 64 | 270 | 1.0 | 1.0 | 0.00 | 0.00 | 0.00 | 47 | 1007.1 |
| 20260509194158 | 64 | 270 | 1.0 | 2.0 | 0.00 | 0.00 | 0.00 | 47 | 1007.1 |
| 20260509193955 | 65 | 270 | 1.0 | 2.0 | 0.00 | 0.00 | 0.00 | 46 | 1007.1 |
| 20260509193757 | 65 | 270 | 1.0 | 2.0 | 0.00 | 0.00 | 0.00 | 46 | 1007.1 |
| 20260509193551 | 65 | 270 | 1.0 | 126.0 | 0.00 | 0.00 | 0.00 | 46 | 1007.1 |
| 20260509193251 | 65 | 270 | 126.0 | 126.0 | 0.00 | 0.00 | 0.00 | 47 | 1006.9 |
| 20260509193145 | 65 | 270 | 1.0 | 3.0 | 0.00 | 0.00 | 0.00 | 46 | 1007.0 |
| 20260509192942 | 65 | 270 | 3.0 | 3.0 | 0.00 | 0.00 | 0.00 | 45 | 1007.0 |
| 20260509192740 | 65 | 270 | 1.0 | 124.0 | 0.00 | 0.00 | 0.00 | 46 | 1007.0 |
| 20260509192538 | 65 | 270 | 1.0 | 124.0 | 0.00 | 0.00 | 0.00 | 46 | 1007.0 |